Regional Weather Roundup
Issued by NWS Newport/Morehead, NC

Current Version | Previous Version | Text Only | Print | Product List | Glossary On
Versions: 1 2 3 4 5 6 7 8 9 10 11 12 13 14 15 16 17 18 19 20 21 22 23 24 25 26 27 28 29 30 31 32 33 34 35 36 37 38 39 40 41 42 43 44 45 46 47 48 49 50
000
ASUS42 KMHX 250310
RWRMHX
WEATHER ROUNDUP FOR EASTERN NORTH CAROLINA
NATIONAL WEATHER SERVICE NEWPORT/MOREHEAD CITY NC
1100 PM EDT THU JUL 24 2014

NOTE: "FAIR" INDICATES FEW OR NO CLOUDS BELOW 12,000 FEET
WITH NO SIGNIFICANT WEATHER AND/OR OBSTRUCTIONS TO VISIBILITY

NCZ015>017-031-032-045>047-102-103-250400-
NORTH COAST

CITY           SKY/WX    TMP DP  RH WIND       PRES   REMARKS
EDENTON        LGT RAIN  70  68  93 E10G20    29.90F
ELIZABETH CITY HVY RAIN  69  67  93 E13       29.93F FOG
KITTY HAWK     RAIN      73  70  90 N3        29.91R
MANTEO         NOT AVBL

$$

NCZ045>047-081-094-103-104-250400-
CENTRAL COAST

CITY           SKY/WX    TMP DP  RH WIND       PRES   REMARKS
FRISCO         CLOUDY    76  74  93 W7        29.91R
SWANQUARTER      N/A     73 N/A N/A N2G15     29.88S

$$

NCZ095-097-098-100-101-250400-
SOUTHERN COAST

CITY           SKY/WX    TMP DP  RH WIND       PRES   REMARKS
BEAUFORT       LGT RAIN  78  73  84 S12       29.88F
CEDAR ISLAND     N/A     75 N/A N/A NW12      29.94S
JACKSONVILLE   TSTM      75  74  96 S8        29.89R
NEWPORT        NOT AVBL
PINEY ISLAND   HVY RAIN  74  74 100 NW10      29.91R FOG
WILMINGTON     TSTM      73  71  93 S9        29.90R


$$

NCZ011>013-027>030-043-044-078>080-089-090>093-098-250400-
COASTAL PLAIN

CITY           SKY/WX    TMP DP  RH WIND       PRES   REMARKS
AHOSKIE        CLOUDY    69  68  94 CALM      29.94R
CLINTON        LGT RAIN  72  71  97 NE10G24   29.94R
ELIZABETHTOWN  CLOUDY    75  74  95 CALM      29.91R
GOLDSBORO      LGT RAIN  69  69  99 NE12      29.91F FOG
GREENVILLE     CLOUDY    70  68  94 E3        29.95S
HAVELOCK       CLOUDY    74  71  91 N16G26    29.94R THUNDER
KENANSVILLE    HVY RAIN  70  67  92 N13G25    29.95R
KINSTON        RAIN      68  67  98 NE13      29.96S
NEW BERN       HVY RAIN  72  69  90 N13       29.96R FOG
RICHLANDS      CLOUDY    73  70  88 N5        29.92R
ROANOKE RAPIDS NOT AVBL
ROCKY MOUNT    LGT RAIN  68  66  93 E6        29.91F
WASHINGTON     CLOUDY    68  66  93 E5        29.94F
WHITEVILLE     DRIZZLE   74  71  91 CALM      29.92R

$$

AMZ130-135-150-152-154-156-158-170-250-252-270-ANZ085-086-088-633-658-670-250400-
MARINE OBSERVATIONS

STATION/POSITION TIME  TEMP    WIND        PRES    WAVE   SWELL
                       AIR SEA DIR/SP/G            HT/PER HT/PER
                 (UTC) (F)     (DEG/KT/KT) (MB)    (FT/S) (FT/S)
CHESAPEAKE LIGHT NOT AVBL
BUOY 44014       0300   76 78  360/ 10/ 12 1012.8    3/ 7   3/ 7
DUCK             0300   72 76  330/ 13/ 18 1013.1
2E DUCK          0200                        N/A     1/ 9
OREGON INLET     0300   75 81   40/  5/  6 1012.6
BUOY 44095       0300      78                N/A     3/ 7
20E OREGON INLET NOT AVBL
HATTERAS CG      0300   77 81  270/  9/ 11 1013.0
DIAMOND BUOY     0300          VRB 16/ 17  1011.7    4/ 5   2/ 8
CAPE LOOKOUT     0200   77     190/ 11/ 12 1012.1
BEAUFORT LAB     0300   78 81  200/ 10/ 14 1011.8
30 SE NEW RIVER  0300   80 81  190/  8/ 10 1013.1    4/ 7   3/ 7
5 SE WRIGHTSVILL 0200   79 81  220/ 14/ 16   N/A
BUOY 41002       0146   82 82  230/ 19/ 23 1016.5    5/ 6   2/ 8
BUOY 41004       0300   83 83  210/ 17/ 21 1013.1    4/ 5   2/ 8

$$


USA.gov is the U.S. government's official web portal to all federal, state and local government web resources and services.